Back to catalog

FENGYUN 1C DEB

AliveSSO
NORAD 31351·DEBRIS·🇨🇳 China

Launched May 10, 1999 from Taiyuan Satellite Launch Center

Loading…

Next Passes (next 24 hours)

TLE

AgingSource: Space-Track

Epoch: Sep 5, 2026, 09:43 UTC

1 31351U 99025BRF 26248.40521248  .00000253  00000-0  16954-3 0  9994
2 31351  98.8197 233.3839 0093256  21.8469 338.6637 14.07207152651257

Track FENGYUN 1C DEB in real time with AllMySat

Download on the App Store